FW9205 Weather Reports


Display with metric or nautical units.
time (UTC)temp
F
wind
direction
speed
MPH
gust
MPH
rain 1hr
in
rain 24hr
in
rain mn
in
humidity
%
barometer
mb
20260505001414 48 198 18.0 23.0 0.00 0.00 0.00 77 1004.4
20260505000413 49 230 18.0 25.0 0.00 0.00 0.00 75 1004.2
20260504235912 49 246 18.0 24.0 0.00 0.00 0.00 77 1004.2
20260504235042 48 224 19.0 26.0 0.00 0.00 0.00 78 1004.0
20260504234405 47 234 18.0 23.0 0.00 0.00 0.00 79 1003.9
20260504233416 47 237 15.0 24.0 0.00 0.00 0.00 78 1003.9
20260504232908 47 233 19.0 24.0 0.00 0.00 0.00 78 1003.7
20260504231914 47 238 17.0 24.0 0.00 0.00 0.00 78 1003.7
20260504230936 47 261 19.0 25.0 0.00 0.00 0.00 77 1003.4
20260504230404 47 231 19.0 25.0 0.00 0.00 0.00 78 1003.4
20260504225431 45 277 15.0 22.0 0.00 0.00 0.00 80 1003.4
20260504224428 44 207 10.0 17.0 0.00 0.00 0.00 79 1003.4
20260504223407 45 258 15.0 22.0 0.00 0.00 0.00 77 1003.2
20260504222858 46 272 17.0 22.0 0.00 0.00 0.00 76 1003.2
20260504221905 46 263 17.0 27.0 0.00 0.00 0.00 73 1003.4
20260504221403 48 238 20.0 31.0 0.00 0.00 0.00 68 1003.3
20260504220420 47 248 18.0 24.0 0.00 0.00 0.00 68 1002.9
20260504215412 47 248 18.0 22.0 0.00 0.00 0.00 67 1002.7
20260504214414 47 251 16.0 20.0 0.00 0.00 0.00 69 1002.3
20260504213855 47 234 16.0 24.0 0.00 0.00 0.00 68 1002.3
20260504212910 0 0.0 0.0 0.00 0.00 0.00 1002.3
20260504211911 0 0.0 0.0 0.00 0.00 0.00 1002.2
20260504210416 0 0.0 0.0 0.00 0.00 0.00 1002.3
20260504205429 0 0.0 0.0 0.00 0.00 0.00 1002.1
20260504204433 0 0.0 0.0 0.00 0.00 0.00 1001.9
20260504203407 0 0.0 0.0 0.00 0.00 0.00 1001.8
20260504202417 0 0.0 0.0 0.00 0.00 0.00 1001.7
20260504201423 0 0.0 0.0 0.00 0.00 0.00 1001.6
20260504200420 0 0.0 0.0 0.00 0.00 0.00 1001.3
20260504195411 0 0.0 0.0 0.00 0.00 0.00 1001.3
20260504194845 0 0.0 0.0 0.00 0.00 0.00 1001.4
20260504193919 0 0.0 0.0 0.00 0.00 0.00 1001.4
20260504192915 0 0.0 0.0 0.00 0.00 0.00 1001.2
20260504191925 0 0.0 0.0 0.00 0.00 0.00 1001.3
20260504190920 0 0.0 0.0 0.00 0.00 0.00 1001.1
20260504185914 0 0.0 0.0 0.00 0.00 0.00 1001.3
20260504184906 0 0.0 0.0 0.00 0.00 0.00 1001.2
20260504183915 0 0.0 0.0 0.00 0.00 0.00 1001.3
20260504182920 0 0.0 0.0 0.00 0.00 0.00 1001.1
20260504181930 0 0.0 0.0 0.00 0.00 0.00 1001.1
20260504180914 0 0.0 0.0 0.00 0.00 0.00 1001.1
20260504175916 0 0.0 0.0 0.00 0.00 0.00 1000.9
20260504174426 0 0.0 0.0 0.00 0.00 0.00 1000.7
20260504173423 0 0.0 0.0 0.00 0.00 0.00 1000.7
20260504172430 0 0.0 0.0 0.00 0.00 0.00 1000.5
20260504171427 0 0.0 0.0 0.00 0.00 0.00 1000.4
20260504170420 0 0.0 0.0 0.00 0.00 0.00 1000.4
20260504160425 0 0.0 0.0 0.00 0.00 0.00 999.4
20260504150430 0 0.0 0.0 0.00 0.00 0.00 999.2
20260504140424 0 0.0 0.0 0.00 0.00 0.00 998.1
20260504130418 0 0.0 0.0 0.00 0.00 0.00 996.7
20260504110425 38 271 28.0 37.0 0.00 0.00 0.00 93 994.4
20260504100424 38 276 32.0 44.0 0.00 0.00 0.00 93 992.6
20260504081855 36 279 42.0 55.0 0.00 0.00 0.00 93 988.3
20260504080904 36 274 39.0 53.0 0.00 0.00 0.00 94 987.8
20260504080354 36 271 38.0 53.0 0.00 0.00 0.00 94 987.6
20260504070337 36 286 31.0 41.0 0.00 0.00 0.00 95 984.8
20260504045851 37 281 22.0 26.0 0.00 0.00 0.00 95 979.8
20260504045038 37 298 21.0 27.0 0.00 0.00 0.00 95 979.3
20260504044335 37 327 20.0 27.0 0.00 0.00 0.00 95 979.4
20260504043409 37 315 18.0 26.0 0.00 0.00 0.00 95 979.1
20260504042909 37 320 19.0 29.0 0.00 0.00 0.00 95 979.0
20260504042328 37 317 21.0 29.0 0.00 0.00 0.00 95 978.9
20260504041340 37 319 22.0 30.0 0.00 0.00 0.00 95 978.8
20260504040350 37 350 24.0 31.0 0.00 0.00 0.00 95 978.4
20260504035849 37 334 26.0 32.0 0.00 0.00 0.00 95 978.3
20260504034706 37 346 24.0 28.0 0.00 0.00 0.00 95 978.2
20260504033840 38 337 18.0 21.0 0.00 0.00 0.00 95 977.9
20260504032906 38 356 15.0 22.0 0.00 0.00 0.00 94 977.9
20260504032357 38 348 16.0 22.0 0.00 0.00 0.00 95 977.6
20260504031351 38 212 17.0 21.0 0.00 0.00 0.00 95 977.5
20260504030355 38 212 17.0 21.0 0.00 0.00 0.00 95 977.8
20260504025855 38 1 14.0 19.0 0.00 0.00 0.00 94 977.6
20260504025344 38 9 14.0 19.0 0.00 0.00 0.00 94 977.6
20260504024344 38 212 13.0 16.0 0.00 0.00 0.00 95 977.5
20260504023413 38 10 12.0 16.0 0.00 0.00 0.00 94 977.5
20260504022400 38 11 12.0 19.0 0.00 0.00 0.00 94 977.6
20260504021356 38 13 14.0 20.0 0.00 0.00 0.00 94 977.8
20260504020854 38 13 12.0 20.0 0.00 0.00 0.00 94 978.0
20260504020348 38 212 14.0 19.0 0.00 0.00 0.00 94 978.0
20260504015350 39 212 14.0 21.0 0.00 0.00 0.00 94 978.2
20260504014836 39 212 13.0 19.0 0.00 0.00 0.00 94 978.5
20260504013918 39 44 13.0 21.0 0.00 0.00 0.00 94 978.6
20260504012907 39 360 14.0 22.0 0.00 0.00 0.00 94 978.7
20260504011907 39 11 15.0 19.0 0.00 0.00 0.00 94 978.8
20260504010911 39 30 12.0 18.0 0.00 0.00 0.00 94 979.8
20260504010403 39 22 12.0 17.0 0.00 0.00 0.00 94 980.0
20260504004906 38 13 14.0 20.0 0.00 0.00 0.00 94 980.7
20260504004358 38 28 14.0 22.0 0.00 0.00 0.00 94 981.1
20260504003416 38 43 18.0 27.0 0.00 0.00 0.00 94 981.5
20260504002907 38 37 19.0 30.0 0.00 0.00 0.00 94 981.5